Date String (YYYY-MM-DD hh:mm:ss) UTC,Instrument flags,absolute air pressure of the measurement (hPa),sample flow rate (lpm),inlet stack bypass flow (lpm),air temperature of the measurement (°C),ambient temperature measured by the external sensor (°C),aerosol sample conditioner tube jacket temperature (°C),OPC LED temperature (°C),internal box temperature (°C),relative humidity of the measurement (%),span deviation,mass concentration of particles derived from Lorenz-Mie calculation of OPC scattering (μg/m³),mass concentration of particles derived from Lorenz-Mie calculation of OPC scattering (μg/m³),mass concentration of particles derived from Lorenz-Mie calculation of OPC scattering (μg/m³)
DateTimeUTC,F1_M11,P_M11,Q1_M11,Q2_M11,T1_M11,T2_M11,T3_M11,T4_M11,T5_M11,U1_M11,ZSPAN_M11,X0_M11,X2_M11,X1_M11
2023-07-10 14:00:00,SystemResetWarning,0830.4,4.99,000.00,029.4,027.3,000.0,038.0,030.9,29.3,-000.7,0011.74,0007.65,0007.13
2023-07-10 14:01:00,SystemResetWarning,0830.5,5.01,000.00,029.4,027.5,000.0,038.0,030.9,29.3,-001.6,0011.76,0007.68,0007.13
2023-07-10 14:02:00,SystemResetWarning,0830.5,5.02,000.00,029.4,027.7,000.0,038.0,031.0,29.1,-001.8,0011.65,0007.70,0007.14
2023-07-10 14:03:00,SystemResetWarning,0830.4,4.99,000.00,029.5,027.9,000.0,038.0,031.0,29.9,-002.1,0011.24,0007.71,0007.15
2023-07-10 14:04:00,SystemResetWarning,0830.4,4.99,000.00,029.5,028.0,000.0,038.0,031.1,30.5,-002.3,0011.39,0007.73,0007.16
2023-07-10 14:05:00,SystemResetWarning,0830.4,5.01,000.00,029.5,028.2,000.0,038.0,031.1,29.1,-002.4,0011.51,0007.72,0007.13
2023-07-10 14:06:00,SystemResetWarning,0830.5,5.00,000.00,029.5,028.3,000.0,038.0,031.2,29.2,-002.1,0011.47,0007.70,0007.11
2023-07-10 14:07:00,SystemResetWarning,0830.4,4.99,000.00,029.6,028.3,000.0,038.0,031.2,29.5,-001.7,0011.54,0007.65,0007.06
2023-07-10 14:08:00,SystemResetWarning,0830.4,5.01,000.00,029.6,028.4,000.0,038.1,031.2,29.5,-001.0,0011.62,0007.63,0007.03
2023-07-10 14:09:00,SystemResetWarning,0830.4,5.00,000.00,029.6,027.3,000.0,038.0,031.2,30.1,-000.7,0011.61,0007.62,0007.00
2023-07-10 14:10:00,SystemResetWarning,0830.4,5.00,000.00,029.5,025.8,000.0,037.8,030.9,30.4,-000.0,0011.41,0007.55,0006.94
2023-07-10 14:11:00,SystemResetWarning,0830.4,5.01,000.00,029.5,025.4,000.0,037.8,030.7,31.1,-000.0,0010.92,0007.44,0006.88
2023-07-10 14:12:00,SystemResetWarning,0830.4,5.01,000.00,029.3,025.6,000.0,037.8,030.5,32.5,0000.0,0011.15,0007.42,0006.85
2023-07-10 14:13:00,SystemResetWarning,0830.4,5.00,000.00,029.3,026.0,000.0,037.8,030.5,33.6,0000.0,0011.93,0007.40,0006.82
2023-07-10 14:14:00,SystemResetWarning,0830.4,4.99,000.00,029.3,026.4,000.0,037.8,030.6,33.2,0000.0,0011.78,0007.33,0006.77
2023-07-10 14:15:00,SystemResetWarning,0830.4,5.00,000.00,029.3,026.7,000.0,037.9,030.7,33.3,0000.0,0011.71,0007.30,0006.75
2023-07-10 14:16:00,SystemResetWarning,0830.5,4.99,000.00,029.3,027.1,000.0,037.9,030.8,33.0,0000.0,0011.68,0007.31,0006.75
2023-07-10 14:17:00,SystemResetWarning,0830.5,4.99,000.00,029.3,027.3,000.0,037.9,030.8,33.1,0000.0,0011.76,0007.34,0006.75
2023-07-10 14:18:00,SystemResetWarning,0830.7,5.00,000.00,029.3,027.5,000.0,037.9,030.9,33.8,0000.0,0011.87,0007.33,0006.77
2023-07-10 14:19:00,SystemResetWarning,0830.4,5.00,000.00,029.3,027.7,000.0,037.9,030.9,34.1,0000.0,0012.42,0007.39,0006.82
2023-07-10 14:20:00,SystemResetWarning,0830.5,5.01,000.00,029.4,027.9,000.0,037.9,031.0,34.3,0000.0,0013.02,0007.45,0006.87
2023-07-10 14:21:00,SystemResetWarning,0830.5,5.00,000.00,029.4,028.1,000.0,037.9,031.0,34.4,0000.0,0013.87,0007.53,0006.92
2023-07-10 14:22:00,SystemResetWarning,0830.5,5.00,000.00,029.4,028.2,000.0,037.9,031.1,34.6,0000.0,0014.07,0007.61,0006.96
2023-07-10 14:23:00,SystemResetWarning,0830.6,5.01,000.00,029.5,028.3,000.0,037.9,031.1,35.2,0000.0,0014.65,0007.65,0007.00
2023-07-10 14:24:00,SystemResetWarning,0830.5,4.98,000.00,029.7,027.9,000.0,037.9,031.3,34.3,0000.0,0013.82,0007.66,0007.05
2023-07-10 14:25:00,SystemResetWarning,0830.6,5.00,000.00,029.8,026.4,000.0,037.8,031.1,34.6,0001.6,0013.99,0007.76,0007.13
2023-07-10 14:26:00,SystemResetWarning,0830.5,5.02,000.00,029.8,025.5,000.0,037.7,031.0,34.5,0001.6,0014.03,0007.82,0007.19
2023-07-10 14:27:00,SystemResetWarning,0830.5,4.97,000.00,029.8,025.5,000.0,037.7,030.7,35.0,0000.9,0014.10,0007.89,0007.24
2023-07-10 14:28:00,SystemResetWarning,0830.5,5.05,000.00,029.8,025.8,000.0,037.8,030.7,35.1,0000.2,0014.04,0007.92,0007.29
2023-07-10 14:29:00,SystemResetWarning,0830.5,4.95,000.00,030.0,026.2,000.0,037.9,030.8,35.1,0000.1,0014.00,0008.00,0007.34
2023-07-10 14:30:00,SystemResetWarning,0830.5,5.05,000.00,030.2,026.6,000.0,037.9,031.0,34.9,0000.2,0013.40,0008.03,0007.37
2023-07-10 14:31:00,SystemResetWarning,0830.5,4.95,000.00,030.5,026.9,000.0,038.0,031.1,34.2,-000.4,0012.98,0008.06,0007.39
2023-07-10 14:32:00,SystemResetWarning,0830.6,5.01,000.00,030.6,027.2,000.0,038.1,031.1,33.7,-000.8,0012.16,0008.05,0007.42
2023-07-10 14:33:00,SystemResetWarning,0830.5,5.02,000.00,030.8,027.5,000.0,038.2,031.2,33.3,-000.8,0012.17,0008.08,0007.45
2023-07-10 14:34:00,SystemResetWarning,0830.5,4.98,000.00,030.8,027.7,000.0,038.3,031.2,33.5,-001.2,0011.60,0008.11,0007.48
2023-07-10 14:35:00,SystemResetWarning,0830.5,4.99,000.00,030.9,027.9,000.0,038.4,031.3,33.4,-001.4,0011.64,0008.16,0007.50
2023-07-10 14:36:00,SystemResetWarning,0830.6,5.00,000.00,030.9,028.0,000.0,038.5,031.3,32.9,-002.1,0011.54,0008.13,0007.50
2023-07-10 14:37:00,SystemResetWarning,0830.5,5.01,000.00,030.9,028.2,000.0,038.6,031.4,32.8,-002.4,0012.42,0008.12,0007.49
2023-07-10 14:38:00,SystemResetWarning,0830.5,5.01,000.00,031.0,028.3,000.0,038.7,031.4,32.7,-002.4,0012.32,0008.08,0007.47
2023-07-10 14:39:00,SystemResetWarning,0830.5,4.99,000.00,031.0,028.3,000.0,038.8,031.4,32.5,-002.0,0012.37,0008.06,0007.47
2023-07-10 14:40:00,SystemResetWarning,0830.5,4.98,000.00,031.0,027.2,000.0,038.7,031.4,32.4,-002.0,0012.39,0008.02,0007.45
2023-07-10 14:41:00,SystemResetWarning,0830.5,5.00,000.00,030.9,025.8,000.0,038.6,031.2,32.6,-002.4,0012.36,0008.00,0007.43
2023-07-10 14:42:00,SystemResetWarning,0830.5,5.00,000.00,030.9,025.4,000.0,038.6,031.0,32.4,-002.4,0012.20,0007.94,0007.41
2023-07-10 14:43:00,SystemResetWarning,0830.6,5.01,000.00,030.7,025.7,000.0,038.6,030.8,32.7,-002.3,0012.29,0007.91,0007.37
2023-07-10 14:44:00,SystemResetWarning,0830.6,5.00,000.00,030.6,026.0,000.0,038.7,030.8,32.4,-002.2,0013.37,0007.86,0007.33
2023-07-10 14:45:00,SystemResetWarning,0830.6,4.99,000.00,030.6,026.4,000.0,038.7,030.9,32.7,-002.4,0013.82,0007.84,0007.29
2023-07-10 14:46:00,SystemResetWarning,0830.6,5.00,000.00,030.5,026.8,000.0,038.7,031.0,32.6,-002.9,0013.61,0007.78,0007.26
2023-07-10 14:47:00,SystemResetWarning,0830.7,5.01,000.00,030.5,027.1,000.0,038.7,031.0,33.2,-002.9,0013.52,0007.77,0007.24
2023-07-10 14:48:00,SystemResetWarning,0830.7,5.02,000.00,030.5,027.4,000.0,038.7,031.1,32.5,-002.4,0013.37,0007.75,0007.20
2023-07-10 14:49:00,SystemResetWarning,0830.7,4.98,000.00,030.5,027.6,000.0,038.7,031.2,32.4,-002.3,0013.26,0007.69,0007.15
2023-07-10 14:50:00,SystemResetWarning,0830.7,4.99,000.00,030.5,027.8,000.0,038.8,031.2,32.3,-002.0,0013.10,0007.63,0007.10
2023-07-10 14:51:00,SystemResetWarning,0830.7,5.01,000.00,030.5,028.0,000.0,038.8,031.3,32.7,-002.3,0013.03,0007.63,0007.07
2023-07-10 14:52:00,SystemResetWarning,0830.7,5.01,000.00,030.5,028.1,000.0,038.8,031.3,33.0,-001.4,0012.95,0007.57,0007.04
2023-07-10 14:53:00,SystemResetWarning,0830.7,4.98,000.00,030.5,028.2,000.0,038.8,031.3,33.3,-001.5,0013.17,0007.54,0007.01
2023-07-10 14:54:00,SystemResetWarning,0830.7,5.00,000.00,030.5,027.7,000.0,038.7,031.4,33.1,-001.9,0013.19,0007.52,0006.99
2023-07-10 14:55:00,SystemResetWarning,0830.6,5.00,000.00,030.4,026.2,000.0,038.6,031.2,33.0,-002.2,0012.48,0007.52,0006.97
2023-07-10 14:56:00,SystemResetWarning,0830.6,4.99,000.00,030.4,025.4,000.0,038.5,031.0,32.7,-002.2,0011.90,0007.49,0006.96
2023-07-10 14:57:00,SystemResetWarning,0830.6,5.01,000.00,030.3,025.5,000.0,038.4,030.8,32.3,-002.1,0012.54,0007.50,0006.94
2023-07-10 14:58:00,SystemResetWarning,0830.6,5.01,000.00,030.1,025.9,000.0,038.5,030.8,32.3,-001.9,0013.33,0007.46,0006.91
2023-07-10 14:59:00,SystemResetWarning,0830.6,5.00,000.00,030.1,026.3,000.0,038.5,030.8,32.1,-001.9,0013.41,0007.45,0006.90
